Weather History for KNYC - April, 2012

Change the Weather History Date:

Saturday, April 28, 2012

  Actual Average Record
Temperature  
Mean Temperature 49 °F 57 °F  
Max Temperature 60 °F 66 °F 90 °F (1990)
Min Temperature 38 °F 49 °F 34 °F (1934)
Degree Days  
Heating Degree Days 16 8  
Month to date heating degree days 295 354  
Since 1 July heating degree days 3599 4576  
Cooling Degree Days 0 1  
Month to date cooling degree days 20 7  
Year to date cooling degree days 24 8  
Moisture  
Dew Point 26 °F    
Average Humidity 42    
Maximum Humidity 59    
Minimum Humidity 24    
Precipitation  
Precipitation 0.00 in 0.15 in 2.74 in (1980)
Month to date precipitation 3.56 4.23  
Year to date precipitation 9.12 15.33  
Snow  
Snow 0.00 in 0.00 in T in (1931)
Month to date snowfall 0.0 0.6  
Since 1 July snowfall 7.4 25.8  
Snow Depth 0.00 in    
Sea Level Pressure  
Sea Level Pressure 30.16 in    
Wind  
Wind Speed 6 mph (West)    
Max Wind Speed 13 mph    
Max Gust Speed 20 mph    
Visibility 10 miles    
Events      
T = Trace of Precipitation, MM = Missing Value Source: NWS Daily Summary

Daily Weather History Graph

Daily Weather History Graph

Search for Another Location

Airport or City:

Trip Planner

Search our weather history database for the weather conditions in past years. The results will help you decide how hot, cold, wet, or windy it might be!

Date:

Astronomy

Apr. 28, 2012 Rise Set
Actual Time 5:57 AM EDT 7:49 PM EDT
Civil Twilight 5:28 AM EDT 8:19 PM EDT
Nautical Twilight 4:52 AM EDT 8:55 PM EDT
Astronomical Twilight 4:13 AM EDT 9:34 PM EDT
Moon 11:34 AM EDT (4/28) 1:12 AM EDT (4/28)
Length of Visible Light 14h 50m
Length of Day
13h 51m
Waxing Crescent, 42% of the Moon is Illuminated
Apr 28
Waxing Crescent
Apr 29
First Quarter
May 5
Full
May 12
Last Quarter
May 20
New

Hourly Weather History & Observations

Time (EDT) Temp. Windchill Dew Point Humidity Pressure Visibility Wind Dir Wind Speed Gust Speed Precip Events Conditions
1:51 AM 41.0 °F 37.1 °F 26.1 °F 55% 30.15 in 10.0 mi Variable 5.8 mph - N/A   Clear
2:51 AM 39.9 °F 36.7 °F 25.0 °F 55% 30.15 in 10.0 mi West 4.6 mph - N/A   Clear
3:51 AM 39.9 °F 34.5 °F 26.1 °F 58% 30.15 in 10.0 mi West 8.1 mph - N/A   Clear
4:51 AM 39.9 °F 36.7 °F 25.0 °F 55% 30.17 in 10.0 mi Variable 4.6 mph - N/A   Clear
5:51 AM 39.0 °F 34.8 °F 25.0 °F 57% 30.18 in 10.0 mi Variable 5.8 mph - N/A   Clear
6:51 AM 39.0 °F 34.0 °F 26.1 °F 60% 30.22 in 10.0 mi Variable 6.9 mph 17.3 mph N/A   Clear
7:51 AM 39.9 °F 34.5 °F 26.1 °F 58% 30.23 in 10.0 mi West 8.1 mph 17.3 mph N/A   Clear
8:51 AM 42.1 °F 36.6 °F 24.1 °F 49% 30.23 in 10.0 mi WNW 9.2 mph 17.3 mph N/A   Clear
9:51 AM 44.1 °F - 21.9 °F 42% 30.24 in 10.0 mi North - - N/A   Clear
10:51 AM 46.9 °F - 23.0 °F 39% 30.24 in 10.0 mi Variable 5.8 mph - N/A   Clear
11:51 AM 51.1 °F - 24.1 °F 35% 30.21 in 10.0 mi North - - N/A   Clear
12:51 PM 52.0 °F - 24.1 °F 34% 30.20 in 10.0 mi West 6.9 mph - N/A   Clear
1:51 PM 55.0 °F - 23.0 °F 29% 30.19 in 10.0 mi WSW 8.1 mph - N/A   Clear
2:51 PM 57.0 °F - 21.0 °F 25% 30.15 in 10.0 mi Variable 5.8 mph - N/A   Clear
3:51 PM 57.9 °F - 24.1 °F 27% 30.11 in 10.0 mi West 6.9 mph - N/A   Clear
4:51 PM 59.0 °F - 30.0 °F 33% 30.11 in 10.0 mi Calm Calm - N/A   Clear
5:51 PM 57.9 °F - 27.0 °F 31% 30.10 in 10.0 mi Variable 5.8 mph - N/A   Clear
6:51 PM 57.0 °F - 28.0 °F 33% 30.10 in 10.0 mi Variable 5.8 mph - N/A   Clear
7:51 PM 55.9 °F - 27.0 °F 33% 30.10 in 10.0 mi West 9.2 mph - N/A   Clear
8:51 PM 54.0 °F - 28.9 °F 38% 30.11 in 10.0 mi Variable 5.8 mph 19.6 mph N/A   Clear
9:51 PM 53.1 °F - 28.0 °F 38% 30.13 in 10.0 mi WSW 5.8 mph - N/A   Clear
10:51 PM 52.0 °F - 30.0 °F 43% 30.14 in 10.0 mi Variable 3.5 mph - N/A   Clear
11:51 PM 52.0 °F - 28.0 °F 40% 30.13 in 10.0 mi West 5.8 mph - N/A   Clear